owner,sensor,date,latitude,longitude,vertical_datum,wind_speed,wind_to_direction,wind_speed_of_gust,qcFlag 
WAVCIS,ioos:station:WAVCIS:CSI06:1,2017-04-01T00:00:00Z,28.8667,-90.4833,10.0,4.692,114.0,,'11111222,11111222,99999999' 
WAVCIS,ioos:station:WAVCIS:CSI06:1,2017-04-01T01:00:00Z,28.8667,-90.4833,10.0,4.595,121.0,,'11111222,11111222,99999999' 
WAVCIS,ioos:station:WAVCIS:CSI06:1,2017-04-01T02:00:00Z,28.8667,-90.4833,10.0,4.937,122.0,,'11111222,11111222,99999999' 
WAVCIS,ioos:station:WAVCIS:CSI06:1,2017-04-01T03:00:00Z,28.8667,-90.4833,10.0,5.854,125.0,,'11111222,11111222,99999999' 
WAVCIS,ioos:station:WAVCIS:CSI06:1,2017-04-01T04:00:00Z,28.8667,-90.4833,10.0,5.619,133.0,,'11111222,11111222,99999999' 
WAVCIS,ioos:station:WAVCIS:CSI06:1,2017-04-01T05:00:00Z,28.8667,-90.4833,10.0,6.235,143.0,,'11111222,11111222,99999999' 
WAVCIS,ioos:station:WAVCIS:CSI06:1,2017-04-01T06:00:00Z,28.8667,-90.4833,10.0,5.293,137.0,,'11111222,11111222,99999999' 
WAVCIS,ioos:station:WAVCIS:CSI06:1,2017-04-01T07:00:00Z,28.8667,-90.4833,10.0,5.689,131.0,,'11111222,11111222,99999999' 
WAVCIS,ioos:station:WAVCIS:CSI06:1,2017-04-01T08:00:00Z,28.8667,-90.4833,10.0,5.302,134.0,,'11111222,11111222,99999999' 
WAVCIS,ioos:station:WAVCIS:CSI06:1,2017-04-01T09:00:00Z,28.8667,-90.4833,10.0,5.397,135.0,,'11111222,11111222,99999999' 
WAVCIS,ioos:station:WAVCIS:CSI06:1,2017-04-01T10:00:00Z,28.8667,-90.4833,10.0,5.568,128.0,,'11111222,11111222,99999999' 
WAVCIS,ioos:station:WAVCIS:CSI06:1,2017-04-01T11:00:00Z,28.8667,-90.4833,10.0,5.111,121.0,,'11111222,11111222,99999999' 
WAVCIS,ioos:station:WAVCIS:CSI06:1,2017-04-01T12:00:00Z,28.8667,-90.4833,10.0,6.25,117.0,,'11111222,11111222,99999999' 
WAVCIS,ioos:station:WAVCIS:CSI06:1,2017-04-01T13:00:00Z,28.8667,-90.4833,10.0,6.45,101.0,,'11111222,11111222,99999999' 
WAVCIS,ioos:station:WAVCIS:CSI06:1,2017-04-01T14:00:00Z,28.8667,-90.4833,10.0,8.04,99.0,,'11111222,11111222,99999999' 
WAVCIS,ioos:station:WAVCIS:CSI06:1,2017-04-01T15:00:00Z,28.8667,-90.4833,10.0,8.85,95.0,,'11111222,11111222,99999999' 
WAVCIS,ioos:station:WAVCIS:CSI06:1,2017-04-01T16:00:00Z,28.8667,-90.4833,10.0,8.92,96.0,,'11111222,11111222,99999999' 
WAVCIS,ioos:station:WAVCIS:CSI06:1,2017-04-01T17:00:00Z,28.8667,-90.4833,10.0,9.37,103.0,,'11111222,11111222,99999999' 
WAVCIS,ioos:station:WAVCIS:CSI06:1,2017-04-01T18:00:00Z,28.8667,-90.4833,10.0,8.24,97.0,,'11111222,11111222,99999999' 
WAVCIS,ioos:station:WAVCIS:CSI06:1,2017-04-01T19:00:00Z,28.8667,-90.4833,10.0,9.61,96.0,,'11111222,11111222,99999999' 
WAVCIS,ioos:station:WAVCIS:CSI06:1,2017-04-01T20:00:00Z,28.8667,-90.4833,10.0,9.46,85.0,,'11111222,11111222,99999999' 
WAVCIS,ioos:station:WAVCIS:CSI06:1,2017-04-01T21:00:00Z,28.8667,-90.4833,10.0,11.12,97.0,,'11111222,11111222,99999999' 
WAVCIS,ioos:station:WAVCIS:CSI06:1,2017-04-01T22:00:00Z,28.8667,-90.4833,10.0,10.74,103.0,,'11111222,11111222,99999999' 
WAVCIS,ioos:station:WAVCIS:CSI06:1,2017-04-01T23:00:00Z,28.8667,-90.4833,10.0,9.96,108.0,,'11111222,11111222,99999999' 
WAVCIS,ioos:station:WAVCIS:CSI06:1,2017-04-02T00:00:00Z,28.8667,-90.4833,10.0,9.73,107.0,,'11111222,11111222,99999999' 
WAVCIS,ioos:station:WAVCIS:CSI06:1,2017-04-02T01:00:00Z,28.8667,-90.4833,10.0,9.5,104.0,,'11111222,11111222,99999999' 
WAVCIS,ioos:station:WAVCIS:CSI06:1,2017-04-02T02:00:00Z,28.8667,-90.4833,10.0,9.25,111.0,,'11111222,11111222,99999999' 
WAVCIS,ioos:station:WAVCIS:CSI06:1,2017-04-02T03:00:00Z,28.8667,-90.4833,10.0,8.71,112.0,,'11111222,11111222,99999999' 
WAVCIS,ioos:station:WAVCIS:CSI06:1,2017-04-02T04:00:00Z,28.8667,-90.4833,10.0,10.34,112.0,,'11111222,11111222,99999999' 
WAVCIS,ioos:station:WAVCIS:CSI06:1,2017-04-02T05:00:00Z,28.8667,-90.4833,10.0,10.15,108.0,,'11111222,11111222,99999999' 
WAVCIS,ioos:station:WAVCIS:CSI06:1,2017-04-02T06:00:00Z,28.8667,-90.4833,10.0,9.56,112.0,,'11111222,11111222,99999999' 
WAVCIS,ioos:station:WAVCIS:CSI06:1,2017-04-02T07:00:00Z,28.8667,-90.4833,10.0,9.83,112.0,,'11111222,11111222,99999999' 
WAVCIS,ioos:station:WAVCIS:CSI06:1,2017-04-02T08:00:00Z,28.8667,-90.4833,10.0,11.34,119.0,,'11111222,11111222,99999999' 
WAVCIS,ioos:station:WAVCIS:CSI06:1,2017-04-02T09:00:00Z,28.8667,-90.4833,10.0,11.03,127.0,,'11111222,11111222,99999999' 
WAVCIS,ioos:station:WAVCIS:CSI06:1,2017-04-02T10:00:00Z,28.8667,-90.4833,10.0,9.16,125.0,,'11111222,11111222,99999999' 
WAVCIS,ioos:station:WAVCIS:CSI06:1,2017-04-02T11:00:00Z,28.8667,-90.4833,10.0,9.89,120.0,,'11111222,11111222,99999999' 
WAVCIS,ioos:station:WAVCIS:CSI06:1,2017-04-02T12:00:00Z,28.8667,-90.4833,10.0,9.38,121.0,,'11111222,11111222,99999999' 
WAVCIS,ioos:station:WAVCIS:CSI06:1,2017-04-02T13:00:00Z,28.8667,-90.4833,10.0,9.2,118.0,,'11111222,11111222,99999999' 
WAVCIS,ioos:station:WAVCIS:CSI06:1,2017-04-02T14:00:00Z,28.8667,-90.4833,10.0,10.91,120.0,,'11111222,11111222,99999999' 
WAVCIS,ioos:station:WAVCIS:CSI06:1,2017-04-02T15:00:00Z,28.8667,-90.4833,10.0,11.26,123.0,,'11111222,11111222,99999999' 
WAVCIS,ioos:station:WAVCIS:CSI06:1,2017-04-02T16:00:00Z,28.8667,-90.4833,10.0,11.6,124.0,,'11111222,11111222,99999999' 
WAVCIS,ioos:station:WAVCIS:CSI06:1,2017-04-02T17:00:00Z,28.8667,-90.4833,10.0,11.66,125.0,,'11111222,11111222,99999999' 
WAVCIS,ioos:station:WAVCIS:CSI06:1,2017-04-02T18:00:00Z,28.8667,-90.4833,10.0,9.79,128.0,,'11111222,11111222,99999999' 
WAVCIS,ioos:station:WAVCIS:CSI06:1,2017-04-02T19:00:00Z,28.8667,-90.4833,10.0,9.77,128.0,,'11111222,11111222,99999999' 
WAVCIS,ioos:station:WAVCIS:CSI06:1,2017-04-02T20:00:00Z,28.8667,-90.4833,10.0,10.52,133.0,,'11111222,11111222,99999999' 
WAVCIS,ioos:station:WAVCIS:CSI06:1,2017-04-02T21:00:00Z,28.8667,-90.4833,10.0,12.03,133.0,,'11111222,11111222,99999999' 
WAVCIS,ioos:station:WAVCIS:CSI06:1,2017-04-02T22:00:00Z,28.8667,-90.4833,10.0,11.76,138.0,,'11111222,11111222,99999999' 
WAVCIS,ioos:station:WAVCIS:CSI06:1,2017-04-02T23:00:00Z,28.8667,-90.4833,10.0,11.76,142.0,,'11111222,11111222,99999999' 
WAVCIS,ioos:station:WAVCIS:CSI06:1,2017-04-03T00:00:00Z,28.8667,-90.4833,10.0,10.91,140.0,,'11111222,11111222,99999999' 
WAVCIS,ioos:station:WAVCIS:CSI06:1,2017-04-03T01:00:00Z,28.8667,-90.4833,10.0,12.09,141.0,,'11111222,11111222,99999999' 
WAVCIS,ioos:station:WAVCIS:CSI06:1,2017-04-03T02:00:00Z,28.8667,-90.4833,10.0,12.23,142.0,,'11111222,11111222,99999999' 
WAVCIS,ioos:station:WAVCIS:CSI06:1,2017-04-03T03:00:00Z,28.8667,-90.4833,10.0,11.6,137.0,,'11111222,11111222,99999999' 
WAVCIS,ioos:station:WAVCIS:CSI06:1,2017-04-03T04:00:00Z,28.8667,-90.4833,10.0,11.78,142.0,,'11111222,11111222,99999999' 
WAVCIS,ioos:station:WAVCIS:CSI06:1,2017-04-03T05:00:00Z,28.8667,-90.4833,10.0,11.6,148.0,,'11111222,11111222,99999999' 
WAVCIS,ioos:station:WAVCIS:CSI06:1,2017-04-03T06:00:00Z,28.8667,-90.4833,10.0,11.43,156.0,,'11111222,11111222,99999999' 
WAVCIS,ioos:station:WAVCIS:CSI06:1,2017-04-03T07:00:00Z,28.8667,-90.4833,10.0,11.37,160.0,,'11111222,11111222,99999999' 
WAVCIS,ioos:station:WAVCIS:CSI06:1,2017-04-03T08:00:00Z,28.8667,-90.4833,10.0,11.71,170.0,,'11111222,11111222,99999999' 
WAVCIS,ioos:station:WAVCIS:CSI06:1,2017-04-03T09:00:00Z,28.8667,-90.4833,10.0,12.76,182.0,,'11111222,11111222,99999999' 
WAVCIS,ioos:station:WAVCIS:CSI06:1,2017-04-03T10:00:00Z,28.8667,-90.4833,10.0,8.48,217.0,,'11111222,11111222,99999999' 
WAVCIS,ioos:station:WAVCIS:CSI06:1,2017-04-03T11:00:00Z,28.8667,-90.4833,10.0,9.88,215.0,,'11111222,11111222,99999999' 
WAVCIS,ioos:station:WAVCIS:CSI06:1,2017-04-03T12:00:00Z,28.8667,-90.4833,10.0,10.31,221.0,,'11111222,11111222,99999999' 
WAVCIS,ioos:station:WAVCIS:CSI06:1,2017-04-03T13:00:00Z,28.8667,-90.4833,10.0,9.96,225.0,,'11111222,11111222,99999999' 
WAVCIS,ioos:station:WAVCIS:CSI06:1,2017-04-03T14:00:00Z,28.8667,-90.4833,10.0,10.12,223.0,,'11111222,11111222,99999999' 
WAVCIS,ioos:station:WAVCIS:CSI06:1,2017-04-03T15:00:00Z,28.8667,-90.4833,10.0,8.93,240.0,,'11111222,11111222,99999999' 
WAVCIS,ioos:station:WAVCIS:CSI06:1,2017-04-03T16:00:00Z,28.8667,-90.4833,10.0,5.728,263.0,,'11111222,11111222,99999999' 
WAVCIS,ioos:station:WAVCIS:CSI06:1,2017-04-03T17:00:00Z,28.8667,-90.4833,10.0,5.973,335.0,,'11111222,11111222,99999999' 
WAVCIS,ioos:station:WAVCIS:CSI06:1,2017-04-03T18:00:00Z,28.8667,-90.4833,10.0,2.055,31.0,,'11111222,11111222,99999999' 
WAVCIS,ioos:station:WAVCIS:CSI06:1,2017-04-03T19:00:00Z,28.8667,-90.4833,10.0,1.353,268.0,,'11111222,11111222,99999999' 
WAVCIS,ioos:station:WAVCIS:CSI06:1,2017-04-03T20:00:00Z,28.8667,-90.4833,10.0,5.659,284.0,,'11111222,11111222,99999999' 
WAVCIS,ioos:station:WAVCIS:CSI06:1,2017-04-03T21:00:00Z,28.8667,-90.4833,10.0,4.826,263.0,,'11111222,11111222,99999999' 
WAVCIS,ioos:station:WAVCIS:CSI06:1,2017-04-03T22:00:00Z,28.8667,-90.4833,10.0,5.112,265.0,,'11111222,11111222,99999999' 
WAVCIS,ioos:station:WAVCIS:CSI06:1,2017-04-03T23:00:00Z,28.8667,-90.4833,10.0,4.428,264.0,,'11111222,11111222,99999999' 
WAVCIS,ioos:station:WAVCIS:CSI06:1,2017-04-04T00:00:00Z,28.8667,-90.4833,10.0,3.803,239.0,,'11111222,11111222,99999999' 
WAVCIS,ioos:station:WAVCIS:CSI06:1,2017-04-04T01:00:00Z,28.8667,-90.4833,10.0,4.205,256.0,,'11111222,11111222,99999999' 
WAVCIS,ioos:station:WAVCIS:CSI06:1,2017-04-04T02:00:00Z,28.8667,-90.4833,10.0,3.627,248.0,,'11111222,11111222,99999999' 
WAVCIS,ioos:station:WAVCIS:CSI06:1,2017-04-04T03:00:00Z,28.8667,-90.4833,10.0,3.3,235.0,,'11111222,11111222,99999999' 
WAVCIS,ioos:station:WAVCIS:CSI06:1,2017-04-04T04:00:00Z,28.8667,-90.4833,10.0,3.189,246.0,,'11111222,11111222,99999999' 
WAVCIS,ioos:station:WAVCIS:CSI06:1,2017-04-04T05:00:00Z,28.8667,-90.4833,10.0,2.12,242.0,,'11111222,11111222,99999999' 
WAVCIS,ioos:station:WAVCIS:CSI06:1,2017-04-04T06:00:00Z,28.8667,-90.4833,10.0,2.392,218.0,,'11111222,11111222,99999999' 
WAVCIS,ioos:station:WAVCIS:CSI06:1,2017-04-04T07:00:00Z,28.8667,-90.4833,10.0,2.023,192.0,,'11111222,11111222,99999999' 
WAVCIS,ioos:station:WAVCIS:CSI06:1,2017-04-04T08:00:00Z,28.8667,-90.4833,10.0,1.876,204.0,,'11111222,11111222,99999999' 
WAVCIS,ioos:station:WAVCIS:CSI06:1,2017-04-04T09:00:00Z,28.8667,-90.4833,10.0,1.827,206.0,,'11111222,11111222,99999999' 
WAVCIS,ioos:station:WAVCIS:CSI06:1,2017-04-04T10:00:00Z,28.8667,-90.4833,10.0,1.521,207.0,,'11111222,11111222,99999999' 
WAVCIS,ioos:station:WAVCIS:CSI06:1,2017-04-04T11:00:00Z,28.8667,-90.4833,10.0,0.802,141.0,,'11111222,11111222,99999999' 
WAVCIS,ioos:station:WAVCIS:CSI06:1,2017-04-04T12:00:00Z,28.8667,-90.4833,10.0,2.241,136.0,,'11111222,11111222,99999999' 
WAVCIS,ioos:station:WAVCIS:CSI06:1,2017-04-04T13:00:00Z,28.8667,-90.4833,10.0,2.424,148.0,,'11111222,11111222,99999999' 
WAVCIS,ioos:station:WAVCIS:CSI06:1,2017-04-04T14:00:00Z,28.8667,-90.4833,10.0,1.607,114.0,,'11111222,11111222,99999999' 
WAVCIS,ioos:station:WAVCIS:CSI06:1,2017-04-04T15:00:00Z,28.8667,-90.4833,10.0,2.377,64.0,,'11111222,11111222,99999999' 
WAVCIS,ioos:station:WAVCIS:CSI06:1,2017-04-04T16:00:00Z,28.8667,-90.4833,10.0,3.577,57.0,,'11111222,11111222,99999999' 
WAVCIS,ioos:station:WAVCIS:CSI06:1,2017-04-04T17:00:00Z,28.8667,-90.4833,10.0,4.82,81.0,,'11111222,11111222,99999999' 
WAVCIS,ioos:station:WAVCIS:CSI06:1,2017-04-04T18:00:00Z,28.8667,-90.4833,10.0,6.78,104.0,,'11111222,11111222,99999999' 
WAVCIS,ioos:station:WAVCIS:CSI06:1,2017-04-04T19:00:00Z,28.8667,-90.4833,10.0,6.762,107.0,,'11111222,11111222,99999999' 
WAVCIS,ioos:station:WAVCIS:CSI06:1,2017-04-04T20:00:00Z,28.8667,-90.4833,10.0,6.771,100.0,,'11111222,11111222,99999999' 
WAVCIS,ioos:station:WAVCIS:CSI06:1,2017-04-04T21:00:00Z,28.8667,-90.4833,10.0,7.6,101.0,,'11111222,11111222,99999999' 
WAVCIS,ioos:station:WAVCIS:CSI06:1,2017-04-04T22:00:00Z,28.8667,-90.4833,10.0,8.42,93.0,,'11111222,11111222,99999999' 
WAVCIS,ioos:station:WAVCIS:CSI06:1,2017-04-04T23:00:00Z,28.8667,-90.4833,10.0,8.44,102.0,,'11111222,11111222,99999999' 
WAVCIS,ioos:station:WAVCIS:CSI06:1,2017-04-05T00:00:00Z,28.8667,-90.4833,10.0,9.24,106.0,,'11111222,11111222,99999999' 
WAVCIS,ioos:station:WAVCIS:CSI06:1,2017-04-05T01:00:00Z,28.8667,-90.4833,10.0,7.69,110.0,,'11111222,11111222,99999999' 
WAVCIS,ioos:station:WAVCIS:CSI06:1,2017-04-05T02:00:00Z,28.8667,-90.4833,10.0,7.93,140.0,,'11111222,11111222,99999999' 
WAVCIS,ioos:station:WAVCIS:CSI06:1,2017-04-05T03:00:00Z,28.8667,-90.4833,10.0,8.27,150.0,,'11111222,11111222,99999999' 
WAVCIS,ioos:station:WAVCIS:CSI06:1,2017-04-05T04:00:00Z,28.8667,-90.4833,10.0,8.93,158.0,,'11111222,11111222,99999999' 
WAVCIS,ioos:station:WAVCIS:CSI06:1,2017-04-05T05:00:00Z,28.8667,-90.4833,10.0,8.53,170.0,,'11111222,11111222,99999999' 
WAVCIS,ioos:station:WAVCIS:CSI06:1,2017-04-05T06:00:00Z,28.8667,-90.4833,10.0,8.33,183.0,,'11111222,11111222,99999999' 
WAVCIS,ioos:station:WAVCIS:CSI06:1,2017-04-05T07:00:00Z,28.8667,-90.4833,10.0,7.27,189.0,,'11111222,11111222,99999999' 
WAVCIS,ioos:station:WAVCIS:CSI06:1,2017-04-05T08:00:00Z,28.8667,-90.4833,10.0,6.937,192.0,,'11111222,11111222,99999999' 
WAVCIS,ioos:station:WAVCIS:CSI06:1,2017-04-05T09:00:00Z,28.8667,-90.4833,10.0,6.299,188.0,,'11111222,11111222,99999999' 
WAVCIS,ioos:station:WAVCIS:CSI06:1,2017-04-05T10:00:00Z,28.8667,-90.4833,10.0,8.12,195.0,,'11111222,11111222,99999999' 
WAVCIS,ioos:station:WAVCIS:CSI06:1,2017-04-05T11:00:00Z,28.8667,-90.4833,10.0,8.5,194.0,,'11111222,11111222,99999999' 
WAVCIS,ioos:station:WAVCIS:CSI06:1,2017-04-05T12:00:00Z,28.8667,-90.4833,10.0,7.13,214.0,,'11111222,11111222,99999999' 
WAVCIS,ioos:station:WAVCIS:CSI06:1,2017-04-05T13:00:00Z,28.8667,-90.4833,10.0,6.951,234.0,,'11111222,11111222,99999999' 
WAVCIS,ioos:station:WAVCIS:CSI06:1,2017-04-05T14:00:00Z,28.8667,-90.4833,10.0,6.168,230.0,,'11111222,11111222,99999999' 
WAVCIS,ioos:station:WAVCIS:CSI06:1,2017-04-05T15:00:00Z,28.8667,-90.4833,10.0,7.39,237.0,,'11111222,11111222,99999999' 
WAVCIS,ioos:station:WAVCIS:CSI06:1,2017-04-05T16:00:00Z,28.8667,-90.4833,10.0,7.48,256.0,,'11111222,11111222,99999999' 
WAVCIS,ioos:station:WAVCIS:CSI06:1,2017-04-05T17:00:00Z,28.8667,-90.4833,10.0,7.98,270.0,,'11111222,11111222,99999999' 
WAVCIS,ioos:station:WAVCIS:CSI06:1,2017-04-05T18:00:00Z,28.8667,-90.4833,10.0,9.05,275.0,,'11111222,11111222,99999999' 
WAVCIS,ioos:station:WAVCIS:CSI06:1,2017-04-05T19:00:00Z,28.8667,-90.4833,10.0,10.2,278.0,,'11111222,11111222,99999999' 
WAVCIS,ioos:station:WAVCIS:CSI06:1,2017-04-05T20:00:00Z,28.8667,-90.4833,10.0,12.05,282.0,,'11111222,11111222,99999999' 
WAVCIS,ioos:station:WAVCIS:CSI06:1,2017-04-05T21:00:00Z,28.8667,-90.4833,10.0,13.72,289.0,,'11111222,11111222,99999999' 
WAVCIS,ioos:station:WAVCIS:CSI06:1,2017-04-05T22:00:00Z,28.8667,-90.4833,10.0,15.32,295.0,,'11111222,11111222,99999999' 
WAVCIS,ioos:station:WAVCIS:CSI06:1,2017-04-05T23:00:00Z,28.8667,-90.4833,10.0,15.22,297.0,,'11111222,11111222,99999999' 
WAVCIS,ioos:station:WAVCIS:CSI06:1,2017-04-06T00:00:00Z,28.8667,-90.4833,10.0,14.4,307.0,,'11111222,11111222,99999999' 
WAVCIS,ioos:station:WAVCIS:CSI06:1,2017-04-06T01:00:00Z,28.8667,-90.4833,10.0,14.75,317.0,,'11111222,11111222,99999999' 
WAVCIS,ioos:station:WAVCIS:CSI06:1,2017-04-06T02:00:00Z,28.8667,-90.4833,10.0,16.08,325.0,,'11111222,11111222,99999999' 
WAVCIS,ioos:station:WAVCIS:CSI06:1,2017-04-06T03:00:00Z,28.8667,-90.4833,10.0,15.94,331.0,,'11111222,11111222,99999999' 
WAVCIS,ioos:station:WAVCIS:CSI06:1,2017-04-06T04:00:00Z,28.8667,-90.4833,10.0,11.75,349.0,,'11111222,11111222,99999999' 
WAVCIS,ioos:station:WAVCIS:CSI06:1,2017-04-06T05:00:00Z,28.8667,-90.4833,10.0,14.45,343.0,,'11111222,11111222,99999999' 
WAVCIS,ioos:station:WAVCIS:CSI06:1,2017-04-06T06:00:00Z,28.8667,-90.4833,10.0,14.72,342.0,,'11111222,11111222,99999999' 
WAVCIS,ioos:station:WAVCIS:CSI06:1,2017-04-06T07:00:00Z,28.8667,-90.4833,10.0,13.83,342.0,,'11111222,11111222,99999999' 
WAVCIS,ioos:station:WAVCIS:CSI06:1,2017-04-06T08:00:00Z,28.8667,-90.4833,10.0,11.26,345.0,,'11111222,11111222,99999999' 
WAVCIS,ioos:station:WAVCIS:CSI06:1,2017-04-06T09:00:00Z,28.8667,-90.4833,10.0,10.94,346.0,,'11111222,11111222,99999999' 
WAVCIS,ioos:station:WAVCIS:CSI06:1,2017-04-06T10:00:00Z,28.8667,-90.4833,10.0,11.33,342.0,,'11111222,11111222,99999999' 
WAVCIS,ioos:station:WAVCIS:CSI06:1,2017-04-06T11:00:00Z,28.8667,-90.4833,10.0,11.06,337.0,,'11111222,11111222,99999999' 
WAVCIS,ioos:station:WAVCIS:CSI06:1,2017-04-06T12:00:00Z,28.8667,-90.4833,10.0,11.31,333.0,,'11111222,11111222,99999999' 
WAVCIS,ioos:station:WAVCIS:CSI06:1,2017-04-06T13:00:00Z,28.8667,-90.4833,10.0,13.27,337.0,,'11111222,11111222,99999999' 
WAVCIS,ioos:station:WAVCIS:CSI06:1,2017-04-06T14:00:00Z,28.8667,-90.4833,10.0,10.09,344.0,,'11111222,11111222,99999999' 
WAVCIS,ioos:station:WAVCIS:CSI06:1,2017-04-06T15:00:00Z,28.8667,-90.4833,10.0,8.51,349.0,,'11111222,11111222,99999999' 
WAVCIS,ioos:station:WAVCIS:CSI06:1,2017-04-06T16:00:00Z,28.8667,-90.4833,10.0,7.97,345.0,,'11111222,11111222,99999999' 
WAVCIS,ioos:station:WAVCIS:CSI06:1,2017-04-06T17:00:00Z,28.8667,-90.4833,10.0,9.53,336.0,,'11111222,11111222,99999999' 
WAVCIS,ioos:station:WAVCIS:CSI06:1,2017-04-06T18:00:00Z,28.8667,-90.4833,10.0,7.76,325.0,,'11111222,11111222,99999999' 
WAVCIS,ioos:station:WAVCIS:CSI06:1,2017-04-06T19:00:00Z,28.8667,-90.4833,10.0,6.782,324.0,,'11111222,11111222,99999999' 
WAVCIS,ioos:station:WAVCIS:CSI06:1,2017-04-06T20:00:00Z,28.8667,-90.4833,10.0,8.3,318.0,,'11111222,11111222,99999999' 
WAVCIS,ioos:station:WAVCIS:CSI06:1,2017-04-06T21:00:00Z,28.8667,-90.4833,10.0,9.01,331.0,,'11111222,11111222,99999999' 
WAVCIS,ioos:station:WAVCIS:CSI06:1,2017-04-06T22:00:00Z,28.8667,-90.4833,10.0,9.75,331.0,,'11111222,11111222,99999999' 
WAVCIS,ioos:station:WAVCIS:CSI06:1,2017-04-06T23:00:00Z,28.8667,-90.4833,10.0,8.79,331.0,,'11111222,11111222,99999999' 
WAVCIS,ioos:station:WAVCIS:CSI06:1,2017-04-07T00:00:00Z,28.8667,-90.4833,10.0,8.42,334.0,,'11111222,11111222,99999999' 
WAVCIS,ioos:station:WAVCIS:CSI06:1,2017-04-07T01:00:00Z,28.8667,-90.4833,10.0,8.53,338.0,,'11111222,11111222,99999999' 
WAVCIS,ioos:station:WAVCIS:CSI06:1,2017-04-07T02:00:00Z,28.8667,-90.4833,10.0,7.9,346.0,,'11111222,11111222,99999999' 
WAVCIS,ioos:station:WAVCIS:CSI06:1,2017-04-07T03:00:00Z,28.8667,-90.4833,10.0,5.964,352.0,,'11111222,11111222,99999999' 
WAVCIS,ioos:station:WAVCIS:CSI06:1,2017-04-07T04:00:00Z,28.8667,-90.4833,10.0,4.445,3.0,,'11111222,11111222,99999999' 
WAVCIS,ioos:station:WAVCIS:CSI06:1,2017-04-07T05:00:00Z,28.8667,-90.4833,10.0,5.216,18.0,,'11111222,11111222,99999999' 
WAVCIS,ioos:station:WAVCIS:CSI06:1,2017-04-07T06:00:00Z,28.8667,-90.4833,10.0,5.055,20.0,,'11111222,11111222,99999999' 
WAVCIS,ioos:station:WAVCIS:CSI06:1,2017-04-07T07:00:00Z,28.8667,-90.4833,10.0,4.495,28.0,,'11111222,11111222,99999999' 
WAVCIS,ioos:station:WAVCIS:CSI06:1,2017-04-07T08:00:00Z,28.8667,-90.4833,10.0,3.236,21.0,,'11111222,11111222,99999999' 
WAVCIS,ioos:station:WAVCIS:CSI06:1,2017-04-07T09:00:00Z,28.8667,-90.4833,10.0,1.461,346.0,,'11111222,11111222,99999999' 
WAVCIS,ioos:station:WAVCIS:CSI06:1,2017-04-07T10:00:00Z,28.8667,-90.4833,10.0,2.643,327.0,,'11111222,11111222,99999999' 
WAVCIS,ioos:station:WAVCIS:CSI06:1,2017-04-07T11:00:00Z,28.8667,-90.4833,10.0,3.375,338.0,,'11111222,11111222,99999999' 
WAVCIS,ioos:station:WAVCIS:CSI06:1,2017-04-07T12:00:00Z,28.8667,-90.4833,10.0,3.906,358.0,,'11111222,11111222,99999999' 
WAVCIS,ioos:station:WAVCIS:CSI06:1,2017-04-07T13:00:00Z,28.8667,-90.4833,10.0,4.655,4.0,,'11111222,11111222,99999999' 
WAVCIS,ioos:station:WAVCIS:CSI06:1,2017-04-07T14:00:00Z,28.8667,-90.4833,10.0,3.797,6.0,,'11111222,11111222,99999999' 
WAVCIS,ioos:station:WAVCIS:CSI06:1,2017-04-07T15:00:00Z,28.8667,-90.4833,10.0,3.258,6.0,,'11111222,11111222,99999999' 
WAVCIS,ioos:station:WAVCIS:CSI06:1,2017-04-07T16:00:00Z,28.8667,-90.4833,10.0,2.882,10.0,,'11111222,11111222,99999999' 
WAVCIS,ioos:station:WAVCIS:CSI06:1,2017-04-07T17:00:00Z,28.8667,-90.4833,10.0,3.056,5.0,,'11111222,11111222,99999999' 
WAVCIS,ioos:station:WAVCIS:CSI06:1,2017-04-07T18:00:00Z,28.8667,-90.4833,10.0,2.997,5.0,,'11111222,11111222,99999999' 
WAVCIS,ioos:station:WAVCIS:CSI06:1,2017-04-07T19:00:00Z,28.8667,-90.4833,10.0,2.665,2.0,,'11111222,11111222,99999999' 
WAVCIS,ioos:station:WAVCIS:CSI06:1,2017-04-07T20:00:00Z,28.8667,-90.4833,10.0,2.71,349.0,,'11111222,11111222,99999999' 
WAVCIS,ioos:station:WAVCIS:CSI06:1,2017-04-07T21:00:00Z,28.8667,-90.4833,10.0,1.956,259.0,,'11111222,11111222,99999999' 
WAVCIS,ioos:station:WAVCIS:CSI06:1,2017-04-07T22:00:00Z,28.8667,-90.4833,10.0,2.63,240.0,,'11111222,11111222,99999999' 
WAVCIS,ioos:station:WAVCIS:CSI06:1,2017-04-07T23:00:00Z,28.8667,-90.4833,10.0,3.783,233.0,,'11111222,11111222,99999999' 
WAVCIS,ioos:station:WAVCIS:CSI06:1,2017-04-08T00:00:00Z,28.8667,-90.4833,10.0,3.08,263.0,,'11111222,11111222,99999999' 
WAVCIS,ioos:station:WAVCIS:CSI06:1,2017-04-08T01:00:00Z,28.8667,-90.4833,10.0,7.52,332.0,,'11111222,11111222,99999999' 
WAVCIS,ioos:station:WAVCIS:CSI06:1,2017-04-08T02:00:00Z,28.8667,-90.4833,10.0,7.95,313.0,,'11111222,11111222,99999999' 
WAVCIS,ioos:station:WAVCIS:CSI06:1,2017-04-08T03:00:00Z,28.8667,-90.4833,10.0,7.07,323.0,,'11111222,11111222,99999999' 
WAVCIS,ioos:station:WAVCIS:CSI06:1,2017-04-08T04:00:00Z,28.8667,-90.4833,10.0,6.83,334.0,,'11111222,11111222,99999999' 
WAVCIS,ioos:station:WAVCIS:CSI06:1,2017-04-08T05:00:00Z,28.8667,-90.4833,10.0,5.6,339.0,,'11111222,11111222,99999999' 
WAVCIS,ioos:station:WAVCIS:CSI06:1,2017-04-08T06:00:00Z,28.8667,-90.4833,10.0,3.952,12.0,,'11111222,11111222,99999999' 
WAVCIS,ioos:station:WAVCIS:CSI06:1,2017-04-08T07:00:00Z,28.8667,-90.4833,10.0,4.472,30.0,,'11111222,11111222,99999999' 
WAVCIS,ioos:station:WAVCIS:CSI06:1,2017-04-08T08:00:00Z,28.8667,-90.4833,10.0,5.309,49.0,,'11111222,11111222,99999999' 
WAVCIS,ioos:station:WAVCIS:CSI06:1,2017-04-08T09:00:00Z,28.8667,-90.4833,10.0,5.277,51.0,,'11111222,11111222,99999999' 
WAVCIS,ioos:station:WAVCIS:CSI06:1,2017-04-08T10:00:00Z,28.8667,-90.4833,10.0,5.873,59.0,,'11111222,11111222,99999999' 
WAVCIS,ioos:station:WAVCIS:CSI06:1,2017-04-08T11:00:00Z,28.8667,-90.4833,10.0,5.746,59.0,,'11111222,11111222,99999999' 
WAVCIS,ioos:station:WAVCIS:CSI06:1,2017-04-08T12:00:00Z,28.8667,-90.4833,10.0,6.882,64.0,,'11111222,11111222,99999999' 
WAVCIS,ioos:station:WAVCIS:CSI06:1,2017-04-08T13:00:00Z,28.8667,-90.4833,10.0,5.942,72.0,,'11111222,11111222,99999999' 
WAVCIS,ioos:station:WAVCIS:CSI06:1,2017-04-08T14:00:00Z,28.8667,-90.4833,10.0,5.509,71.0,,'11111222,11111222,99999999' 
WAVCIS,ioos:station:WAVCIS:CSI06:1,2017-04-08T15:00:00Z,28.8667,-90.4833,10.0,6.048,66.0,,'11111222,11111222,99999999' 
WAVCIS,ioos:station:WAVCIS:CSI06:1,2017-04-08T16:00:00Z,28.8667,-90.4833,10.0,5.77,76.0,,'11111222,11111222,99999999' 
WAVCIS,ioos:station:WAVCIS:CSI06:1,2017-04-08T17:00:00Z,28.8667,-90.4833,10.0,4.384,100.0,,'11111222,11111222,99999999' 
WAVCIS,ioos:station:WAVCIS:CSI06:1,2017-04-08T18:00:00Z,28.8667,-90.4833,10.0,3.227,108.0,,'11111222,11111222,99999999' 
WAVCIS,ioos:station:WAVCIS:CSI06:1,2017-04-08T19:00:00Z,28.8667,-90.4833,10.0,3.562,119.0,,'11111222,11111222,99999999' 
WAVCIS,ioos:station:WAVCIS:CSI06:1,2017-04-08T20:00:00Z,28.8667,-90.4833,10.0,3.531,114.0,,'11111222,11111222,99999999' 
WAVCIS,ioos:station:WAVCIS:CSI06:1,2017-04-08T21:00:00Z,28.8667,-90.4833,10.0,2.637,121.0,,'11111222,11111222,99999999' 
WAVCIS,ioos:station:WAVCIS:CSI06:1,2017-04-08T22:00:00Z,28.8667,-90.4833,10.0,3.026,114.0,,'11111222,11111222,99999999' 
WAVCIS,ioos:station:WAVCIS:CSI06:1,2017-04-08T23:00:00Z,28.8667,-90.4833,10.0,3.054,132.0,,'11111222,11111222,99999999' 
WAVCIS,ioos:station:WAVCIS:CSI06:1,2017-04-09T00:00:00Z,28.8667,-90.4833,10.0,2.764,115.0,,'11111222,11111222,99999999' 
WAVCIS,ioos:station:WAVCIS:CSI06:1,2017-04-09T01:00:00Z,28.8667,-90.4833,10.0,3.497,124.0,,'11111222,11111222,99999999' 
WAVCIS,ioos:station:WAVCIS:CSI06:1,2017-04-09T02:00:00Z,28.8667,-90.4833,10.0,4.521,133.0,,'11111222,11111222,99999999' 
WAVCIS,ioos:station:WAVCIS:CSI06:1,2017-04-09T03:00:00Z,28.8667,-90.4833,10.0,4.703,130.0,,'11111222,11111222,99999999' 
WAVCIS,ioos:station:WAVCIS:CSI06:1,2017-04-09T04:00:00Z,28.8667,-90.4833,10.0,5.704,127.0,,'11111222,11111222,99999999' 
WAVCIS,ioos:station:WAVCIS:CSI06:1,2017-04-09T05:00:00Z,28.8667,-90.4833,10.0,6.134,133.0,,'11111222,11111222,99999999' 